Showing default

ORBCOMM FM 14, 25419

Orbit data source: Space-Track

ORBCOMM FM 14, 25419 is a payload satellite owned by Orbcomm (US) in LEO that was launched on Sun, 02 Aug 1998 UTC via a PEGASUS XL/HAPS launch vehicle from the Pegasus Launch, Eastern Range Air Space (ERAS). Payload-class satellites include a variety of spacecraft equipped with specific instruments for various scientific and technological missions. These include communications satellites like Starlink; space stations such as the ISS; scientific satellites like the Hubble; Earth observation satellites from companies like Planet Labs, Umbra, and HawkEye 360; GPS; miniature CubeSats for education and research; and military/defense satellites.

Loading next visibility...
Identifier
25419, 1998-046G
Orbit
LEO
Country
Flag of USUS / ORB
Related business
Manufacturer
OSC-Germantown
Mission
Non-operational Commercial Communications
Bus & Motor
MICROSTAR, Unknown motor
Mass
42 kg wet, 42 kg dry
Launch date (UTC)
1998-08-02 (27 years ago)
Launch vehicle
PEGASUS XL/HAPS
Launch site
Pegasus Launch, Eastern Range Air Space (ERAS)
Object type
Payload
Rocket body
Debris
Shape & HBR
Cyl + 2 Pan, 2.1 m
Radar Cross Section
1.484 m², Medium (>0.1 m² and < 1m²)

Expand to show TLE details & history
Last TLE update: 15 hours ago

TLE from 15 hours ago
0 ORBCOMM FM 14
1 25419U 98046G   25243.22664352  .00002312  00000-0  78631-3 0  9990
2 25419  44.9940 179.8344 0004912 317.9052  42.1419 14.39092328415026
Epoch: 2025-08-31T05:26Z
TLE epoch observation values (Epoch: 2025-08-31T05:26:22Z)
Latitude
0.00001°
Longitude
118.59313°
Altitude
758.898 km
Speed
7.478 km/s
True Right ascension
11h 59m 20s
True Declination
0° 00' 00"
Sunlit
Object was in daylight at epoch
Visualization orbit readout
Latitude
Unknown
Longitude
Unknown
Altitude
Unknown
Speed
Unknown
Apparent Right ascension
Unknown
Apparent Declination
Unknown
Sunlit
N/A
Visualization observer readout
Local Sidereal Time
12:34:21
Azimuth
Unknown
Elevation
Unknown
Doppler factor
Unknown
Orbital elements
Apogee altitude
766.554 km
Perigee altitude
759.539 km
Semi-major axis
7,141.184 km
Eccentricity
0.00049
Inclination
44.994°
RAAN
179.8344°
Arg. of periapsis
317.9052°
True anomaly
42.17968°
Mean anomaly
42.1419°
Eccentric anomaly
42.16079°
Mean motion
3.59656 °/min
Orbital period
100.1 mins
BSTAR
0.00078631
Loading maneuver chart data...
Computing Atmospheric mass density...

Documentation

Showing up to 5 results
|